Time,TemperatureF,DewpointF,PressureIn,WindDirection,WindDirectionDegrees,WindSpeedMPH,WindSpeedGustMPH,Humidity,HourlyPrecipIn,Conditions,Clouds,dailyrainin,SoftwareType,DateUTC
2013-03-29 00:03:00,36.3,33.1,30.22,South,169,6.0,8.0,88,0.00,,,0.00,Wunderground v.1.15,2013-03-29 05:03:00,
2013-03-29 00:08:00,36.2,33.0,30.22,South,169,3.0,8.0,88,0.00,,,0.00,Wunderground v.1.15,2013-03-29 05:08:00,
2013-03-29 00:14:00,36.2,33.0,30.22,South,169,2.0,6.0,88,0.00,,,0.00,Wunderground v.1.15,2013-03-29 05:14:00,
2013-03-29 00:19:00,36.0,32.8,30.22,South,169,5.0,6.0,88,0.00,,,0.00,Wunderground v.1.15,2013-03-29 05:19:00,
2013-03-29 00:26:00,35.8,32.3,30.22,South,169,6.0,6.0,87,0.00,,,0.00,Wunderground v.1.15,2013-03-29 05:26:00,
2013-03-29 00:31:00,35.6,32.1,30.22,South,169,4.0,4.0,87,0.00,,,0.00,Wunderground v.1.15,2013-03-29 05:31:00,
2013-03-29 00:36:00,35.4,31.9,30.22,South,169,5.0,5.0,87,0.00,,,0.00,Wunderground v.1.15,2013-03-29 05:36:00,
2013-03-29 00:42:00,35.3,31.8,30.22,South,169,4.0,4.0,87,0.00,,,0.00,Wunderground v.1.15,2013-03-29 05:42:00,
2013-03-29 00:48:00,35.2,31.7,30.22,South,169,3.0,5.0,87,0.00,,,0.00,Wunderground v.1.15,2013-03-29 05:48:00,
2013-03-29 00:53:00,35.1,31.6,30.22,South,169,3.0,5.0,87,0.00,,,0.00,Wunderground v.1.15,2013-03-29 05:53:00,
2013-03-29 00:59:00,35.1,31.6,30.22,South,169,7.0,7.0,87,0.00,,,0.00,Wunderground v.1.15,2013-03-29 05:59:00,
2013-03-29 01:07:00,34.9,31.4,30.23,South,169,4.0,5.0,87,0.00,,,0.00,Wunderground v.1.15,2013-03-29 06:07:00,
2013-03-29 01:12:00,34.7,31.2,30.23,South,169,6.0,6.0,87,0.00,,,0.00,Wunderground v.1.15,2013-03-29 06:12:00,
2013-03-29 01:17:00,34.4,30.9,30.23,South,169,4.0,6.0,87,0.00,,,0.00,Wunderground v.1.15,2013-03-29 06:17:00,
2013-03-29 01:22:00,34.4,30.9,30.23,South,169,3.0,4.0,87,0.00,,,0.00,Wunderground v.1.15,2013-03-29 06:22:00,
2013-03-29 01:27:00,34.4,30.9,30.22,South,169,2.0,5.0,87,0.00,,,0.00,Wunderground v.1.15,2013-03-29 06:27:00,
2013-03-29 01:33:00,34.8,31.6,30.23,South,169,7.0,7.0,88,0.00,,,0.00,Wunderground v.1.15,2013-03-29 06:33:00,
2013-03-29 01:39:00,34.9,31.4,30.22,South,169,3.0,7.0,87,0.00,,,0.00,Wunderground v.1.15,2013-03-29 06:39:00,
2013-03-29 01:44:00,34.4,30.9,30.22,South,169,3.0,4.0,87,0.00,,,0.00,Wunderground v.1.15,2013-03-29 06:44:00,
2013-03-29 01:51:00,33.6,30.1,30.22,South,169,6.0,6.0,87,0.00,,,0.00,Wunderground v.1.15,2013-03-29 06:51:00,
2013-03-29 01:56:00,33.5,30.3,30.22,South,169,2.0,6.0,88,0.00,,,0.00,Wunderground v.1.15,2013-03-29 06:56:00,
2013-03-29 02:02:00,33.5,30.3,30.23,South,169,2.0,3.0,88,0.00,,,0.00,Wunderground v.1.15,2013-03-29 07:02:00,
2013-03-29 02:07:00,33.6,30.4,30.23,South,169,2.0,4.0,88,0.00,,,0.00,Wunderground v.1.15,2013-03-29 07:07:00,
2013-03-29 02:12:00,33.6,30.4,30.23,South,169,3.0,3.0,88,0.00,,,0.00,Wunderground v.1.15,2013-03-29 07:12:00,
2013-03-29 02:17:00,33.4,30.2,30.22,South,169,1.0,4.0,88,0.00,,,0.00,Wunderground v.1.15,2013-03-29 07:17:00,
2013-03-29 02:22:00,32.8,29.6,30.22,South,169,0.0,2.0,88,0.00,,,0.00,Wunderground v.1.15,2013-03-29 07:22:00,
2013-03-29 02:27:00,32.1,28.9,30.22,South,169,2.0,3.0,88,0.00,,,0.00,Wunderground v.1.15,2013-03-29 07:27:00,
2013-03-29 02:32:00,32.1,28.9,30.22,South,169,3.0,4.0,88,0.00,,,0.00,Wunderground v.1.15,2013-03-29 07:32:00,
2013-03-29 02:37:00,33.1,30.2,30.22,South,169,3.0,6.0,89,0.00,,,0.00,Wunderground v.1.15,2013-03-29 07:37:00,
2013-03-29 02:42:00,33.8,30.9,30.22,South,169,3.0,5.0,89,0.00,,,0.00,Wunderground v.1.15,2013-03-29 07:42:00,
2013-03-29 02:48:00,34.2,31.3,30.22,South,169,4.0,6.0,89,0.00,,,0.00,Wunderground v.1.15,2013-03-29 07:48:00,
2013-03-29 02:53:00,34.3,31.1,30.22,South,169,3.0,5.0,88,0.00,,,0.00,Wunderground v.1.15,2013-03-29 07:53:00,
2013-03-29 02:58:00,33.6,30.4,30.21,South,169,3.0,5.0,88,0.00,,,0.00,Wunderground v.1.15,2013-03-29 07:58:00,
2013-03-29 03:03:00,32.8,29.4,30.21,South,169,2.0,3.0,87,0.00,,,0.00,Wunderground v.1.15,2013-03-29 08:03:00,
2013-03-29 03:08:00,32.4,29.2,30.21,South,169,1.0,5.0,88,0.00,,,0.00,Wunderground v.1.15,2013-03-29 08:08:00,
2013-03-29 03:13:00,32.5,29.3,30.21,South,169,3.0,5.0,88,0.00,,,0.00,Wunderground v.1.15,2013-03-29 08:13:00,
2013-03-29 03:18:00,32.6,29.4,30.21,South,169,2.0,8.0,88,0.00,,,0.00,Wunderground v.1.15,2013-03-29 08:18:00,
2013-03-29 03:23:00,32.4,29.2,30.21,South,169,2.0,4.0,88,0.00,,,0.00,Wunderground v.1.15,2013-03-29 08:23:00,
2013-03-29 03:28:00,32.4,29.2,30.21,South,169,3.0,4.0,88,0.00,,,0.00,Wunderground v.1.15,2013-03-29 08:28:00,
2013-03-29 03:33:00,33.4,30.5,30.21,South,169,4.0,5.0,89,0.00,,,0.00,Wunderground v.1.15,2013-03-29 08:33:00,
2013-03-29 03:38:00,34.4,31.2,30.21,South,169,2.0,5.0,88,0.00,,,0.00,Wunderground v.1.15,2013-03-29 08:38:00,
2013-03-29 03:43:00,34.7,31.5,30.20,South,169,2.0,6.0,88,0.00,,,0.00,Wunderground v.1.15,2013-03-29 08:43:00,
2013-03-29 03:48:00,35.1,31.6,30.20,South,169,6.0,8.0,87,0.00,,,0.00,Wunderground v.1.15,2013-03-29 08:48:00,
2013-03-29 03:53:00,34.4,30.6,30.20,South,169,1.0,5.0,86,0.00,,,0.00,Wunderground v.1.15,2013-03-29 08:53:00,
2013-03-29 03:58:00,34.1,30.4,30.20,South,169,4.0,6.0,86,0.00,,,0.00,Wunderground v.1.15,2013-03-29 08:58:00,
2013-03-29 04:03:00,34.1,30.4,30.20,South,169,4.0,5.0,86,0.00,,,0.00,Wunderground v.1.15,2013-03-29 09:03:00,
2013-03-29 04:08:00,34.1,30.4,30.20,South,169,4.0,7.0,86,0.00,,,0.00,Wunderground v.1.15,2013-03-29 09:08:00,
2013-03-29 04:13:00,34.0,30.3,30.20,South,169,3.0,6.0,86,0.00,,,0.00,Wunderground v.1.15,2013-03-29 09:13:00,
2013-03-29 04:18:00,33.7,30.0,30.20,South,169,4.0,6.0,86,0.00,,,0.00,Wunderground v.1.15,2013-03-29 09:18:00,
2013-03-29 04:23:00,33.4,29.7,30.20,South,169,0.0,3.0,86,0.00,,,0.00,Wunderground v.1.15,2013-03-29 09:23:00,
2013-03-29 04:28:00,33.0,29.0,30.20,South,169,0.0,3.0,85,0.00,,,0.00,Wunderground v.1.15,2013-03-29 09:28:00,
2013-03-29 04:33:00,32.8,29.1,30.20,South,169,1.0,2.0,86,0.00,,,0.00,Wunderground v.1.15,2013-03-29 09:33:00,
2013-03-29 04:38:00,32.4,28.7,30.20,South,169,0.0,2.0,86,0.00,,,0.00,Wunderground v.1.15,2013-03-29 09:38:00,
2013-03-29 04:43:00,32.5,28.8,30.20,South,169,0.0,2.0,86,0.00,,,0.00,Wunderground v.1.15,2013-03-29 09:43:00,
2013-03-29 04:48:00,32.7,29.0,30.20,South,169,1.0,3.0,86,0.00,,,0.00,Wunderground v.1.15,2013-03-29 09:48:00,
2013-03-29 04:53:00,32.9,29.5,30.20,South,169,1.0,3.0,87,0.00,,,0.00,Wunderground v.1.15,2013-03-29 09:53:00,
2013-03-29 04:58:00,32.9,29.5,30.20,South,169,2.0,4.0,87,0.00,,,0.00,Wunderground v.1.15,2013-03-29 09:58:00,
2013-03-29 05:03:00,33.0,29.6,30.19,South,169,0.0,4.0,87,0.00,,,0.00,Wunderground v.1.15,2013-03-29 10:03:00,
2013-03-29 05:08:00,33.1,29.7,30.20,South,169,0.0,4.0,87,0.00,,,0.00,Wunderground v.1.15,2013-03-29 10:08:00,
2013-03-29 05:13:00,33.0,29.3,30.20,South,169,0.0,1.0,86,0.00,,,0.00,Wunderground v.1.15,2013-03-29 10:13:00,
2013-03-29 05:18:00,32.8,29.1,30.20,South,169,0.0,1.0,86,0.00,,,0.00,Wunderground v.1.15,2013-03-29 10:18:00,
2013-03-29 05:23:00,32.6,28.9,30.20,South,169,3.0,3.0,86,0.00,,,0.00,Wunderground v.1.15,2013-03-29 10:23:00,
2013-03-29 05:28:00,32.3,28.6,30.20,South,169,4.0,4.0,86,0.00,,,0.00,Wunderground v.1.15,2013-03-29 10:28:00,
2013-03-29 05:33:00,32.0,28.6,30.20,South,169,0.0,3.0,87,0.00,,,0.00,Wunderground v.1.15,2013-03-29 10:33:00,
2013-03-29 05:38:00,31.7,28.3,30.20,South,169,0.0,3.0,87,0.00,,,0.00,Wunderground v.1.15,2013-03-29 10:38:00,
2013-03-29 05:43:00,31.6,28.2,30.20,South,169,0.0,0.0,87,0.00,,,0.00,Wunderground v.1.15,2013-03-29 10:43:00,
2013-03-29 05:48:00,31.7,28.6,30.20,South,169,1.0,2.0,88,0.00,,,0.00,Wunderground v.1.15,2013-03-29 10:48:00,
2013-03-29 05:53:00,31.8,28.7,30.19,South,169,2.0,3.0,88,0.00,,,0.00,Wunderground v.1.15,2013-03-29 10:53:00,
2013-03-29 05:59:00,31.6,28.5,30.19,South,169,4.0,5.0,88,0.00,,,0.00,Wunderground v.1.15,2013-03-29 10:59:00,
2013-03-29 06:03:00,31.9,28.8,30.19,South,169,1.0,5.0,88,0.00,,,0.00,Wunderground v.1.15,2013-03-29 11:03:00,
2013-03-29 06:08:00,32.0,29.1,30.19,South,169,0.0,5.0,89,0.00,,,0.00,Wunderground v.1.15,2013-03-29 11:08:00,
2013-03-29 06:14:00,32.3,29.1,30.19,South,169,1.0,3.0,88,0.00,,,0.00,Wunderground v.1.15,2013-03-29 11:14:00,
2013-03-29 06:19:00,32.5,29.6,30.19,South,169,0.0,3.0,89,0.00,,,0.00,Wunderground v.1.15,2013-03-29 11:19:00,
2013-03-29 06:24:00,32.6,29.7,30.19,South,169,0.0,2.0,89,0.00,,,0.00,Wunderground v.1.15,2013-03-29 11:24:00,
2013-03-29 06:29:00,32.7,29.8,30.19,South,169,1.0,2.0,89,0.00,,,0.00,Wunderground v.1.15,2013-03-29 11:29:00,
2013-03-29 06:34:00,32.8,29.6,30.19,South,169,0.0,2.0,88,0.00,,,0.00,Wunderground v.1.15,2013-03-29 11:34:00,
2013-03-29 06:39:00,32.9,29.7,30.19,South,169,0.0,2.0,88,0.00,,,0.00,Wunderground v.1.15,2013-03-29 11:39:00,
2013-03-29 06:44:00,33.0,29.8,30.19,South,169,0.0,2.0,88,0.00,,,0.00,Wunderground v.1.15,2013-03-29 11:44:00,
2013-03-29 06:49:00,33.1,30.2,30.20,South,169,0.0,2.0,89,0.00,,,0.00,Wunderground v.1.15,2013-03-29 11:49:00,
2013-03-29 06:54:00,33.1,29.9,30.20,South,169,0.0,1.0,88,0.00,,,0.00,Wunderground v.1.15,2013-03-29 11:54:00,
2013-03-29 06:59:00,33.2,30.0,30.20,South,169,0.0,1.0,88,0.00,,,0.00,Wunderground v.1.15,2013-03-29 11:59:00,
2013-03-29 07:04:00,33.2,30.0,30.20,South,169,0.0,2.0,88,0.00,,,0.00,Wunderground v.1.15,2013-03-29 12:04:00,
2013-03-29 07:09:00,32.9,29.7,30.20,South,169,0.0,3.0,88,0.00,,,0.00,Wunderground v.1.15,2013-03-29 12:09:00,
2013-03-29 07:14:00,32.6,29.4,30.20,South,169,2.0,3.0,88,0.00,,,0.00,Wunderground v.1.15,2013-03-29 12:14:00,
2013-03-29 07:19:00,32.7,29.5,30.20,South,169,0.0,3.0,88,0.00,,,0.00,Wunderground v.1.15,2013-03-29 12:19:00,
2013-03-29 07:24:00,32.8,29.6,30.21,South,169,0.0,1.0,88,0.00,,,0.00,Wunderground v.1.15,2013-03-29 12:24:00,
2013-03-29 07:29:00,32.8,29.6,30.21,South,169,0.0,1.0,88,0.00,,,0.00,Wunderground v.1.15,2013-03-29 12:29:00,
2013-03-29 07:34:00,32.8,29.6,30.22,South,169,0.0,1.0,88,0.00,,,0.00,Wunderground v.1.15,2013-03-29 12:34:00,
2013-03-29 07:39:00,32.8,29.9,30.22,South,169,1.0,3.0,89,0.00,,,0.00,Wunderground v.1.15,2013-03-29 12:39:00,
2013-03-29 07:44:00,32.7,29.8,30.22,South,169,2.0,3.0,89,0.00,,,0.00,Wunderground v.1.15,2013-03-29 12:44:00,
2013-03-29 07:49:00,32.5,29.6,30.21,South,169,3.0,4.0,89,0.00,,,0.00,Wunderground v.1.15,2013-03-29 12:49:00,
2013-03-29 07:54:00,32.6,29.7,30.21,South,169,0.0,3.0,89,0.00,,,0.00,Wunderground v.1.15,2013-03-29 12:54:00,
2013-03-29 07:59:00,32.6,29.7,30.22,South,169,1.0,3.0,89,0.00,,,0.00,Wunderground v.1.15,2013-03-29 12:59:00,
2013-03-29 08:04:00,32.7,29.8,30.22,South,169,0.0,1.0,89,0.00,,,0.00,Wunderground v.1.15,2013-03-29 13:04:00,
2013-03-29 08:09:00,32.7,29.8,30.22,South,169,0.0,1.0,89,0.00,,,0.00,Wunderground v.1.15,2013-03-29 13:09:00,
2013-03-29 08:14:00,32.7,29.8,30.22,South,169,0.0,0.0,89,0.00,,,0.00,Wunderground v.1.15,2013-03-29 13:14:00,
2013-03-29 08:19:00,32.6,29.7,30.22,South,169,0.0,0.0,89,0.00,,,0.00,Wunderground v.1.15,2013-03-29 13:19:00,
2013-03-29 08:24:00,33.2,30.3,30.22,South,169,0.0,0.0,89,0.00,,,0.00,Wunderground v.1.15,2013-03-29 13:24:00,
2013-03-29 08:29:00,33.5,30.6,30.22,South,169,0.0,0.0,89,0.00,,,0.00,Wunderground v.1.15,2013-03-29 13:29:00,
2013-03-29 08:34:00,33.6,30.7,30.22,South,169,0.0,0.0,89,0.00,,,0.00,Wunderground v.1.15,2013-03-29 13:34:00,
2013-03-29 08:39:00,33.9,31.0,30.22,South,169,0.0,0.0,89,0.00,,,0.00,Wunderground v.1.15,2013-03-29 13:39:00,
2013-03-29 08:44:00,34.4,31.5,30.22,South,169,3.0,4.0,89,0.00,,,0.00,Wunderground v.1.15,2013-03-29 13:44:00,
2013-03-29 08:49:00,34.8,31.9,30.22,South,169,1.0,4.0,89,0.00,,,0.00,Wunderground v.1.15,2013-03-29 13:49:00,
2013-03-29 08:54:00,35.7,32.8,30.22,South,169,3.0,5.0,89,0.00,,,0.00,Wunderground v.1.15,2013-03-29 13:54:00,
2013-03-29 08:59:00,36.6,33.4,30.22,South,169,3.0,8.0,88,0.00,,,0.00,Wunderground v.1.15,2013-03-29 13:59:00,
2013-03-29 09:04:00,36.7,33.2,30.21,South,169,5.0,7.0,87,0.00,,,0.00,Wunderground v.1.15,2013-03-29 14:04:00,
2013-03-29 09:09:00,36.8,33.0,30.21,South,169,4.0,7.0,86,0.00,,,0.00,Wunderground v.1.15,2013-03-29 14:09:00,
2013-03-29 09:14:00,36.8,33.0,30.21,South,169,3.0,7.0,86,0.00,,,0.00,Wunderground v.1.15,2013-03-29 14:14:00,
2013-03-29 09:19:00,36.9,32.8,30.21,South,169,3.0,7.0,85,0.00,,,0.00,Wunderground v.1.15,2013-03-29 14:19:00,
2013-03-29 09:24:00,37.0,32.9,30.21,South,169,5.0,6.0,85,0.00,,,0.00,Wunderground v.1.15,2013-03-29 14:24:00,
2013-03-29 09:29:00,37.4,33.3,30.21,South,169,3.0,6.0,85,0.00,,,0.00,Wunderground v.1.15,2013-03-29 14:29:00,
2013-03-29 09:34:00,37.9,33.8,30.21,South,169,7.0,8.0,85,0.00,,,0.00,Wunderground v.1.15,2013-03-29 14:34:00,
2013-03-29 09:39:00,38.2,34.1,30.21,South,169,3.0,8.0,85,0.00,,,0.00,Wunderground v.1.15,2013-03-29 14:39:00,
2013-03-29 09:44:00,38.3,34.2,30.21,South,169,5.0,6.0,85,0.00,,,0.00,Wunderground v.1.15,2013-03-29 14:44:00,
2013-03-29 09:49:00,38.3,34.2,30.21,South,169,6.0,6.0,85,0.00,,,0.00,Wunderground v.1.15,2013-03-29 14:49:00,
2013-03-29 09:55:00,38.4,34.3,30.21,SSE,167,5.0,7.0,85,0.00,,,0.00,Wunderground v.1.15,2013-03-29 14:55:00,
2013-03-29 10:00:00,38.8,34.7,30.21,SSE,167,3.0,5.0,85,0.00,,,0.00,Wunderground v.1.15,2013-03-29 15:00:00,
2013-03-29 10:05:00,39.0,34.6,30.21,SSE,167,4.0,6.0,84,0.00,,,0.00,Wunderground v.1.15,2013-03-29 15:05:00,
2013-03-29 10:10:00,39.8,35.4,30.21,SSE,167,5.0,5.0,84,0.00,,,0.00,Wunderground v.1.15,2013-03-29 15:10:00,
2013-03-29 10:15:00,40.2,35.4,30.21,SSE,167,5.0,8.0,83,0.00,,,0.00,Wunderground v.1.15,2013-03-29 15:15:00,
2013-03-29 10:20:00,40.5,35.4,30.21,SSE,167,6.0,6.0,82,0.00,,,0.00,Wunderground v.1.15,2013-03-29 15:20:00,
2013-03-29 10:25:00,40.8,35.4,30.21,SSE,167,8.0,10.0,81,0.00,,,0.00,Wunderground v.1.15,2013-03-29 15:25:00,
2013-03-29 10:30:00,41.6,36.2,30.21,SSE,167,6.0,7.0,81,0.00,,,0.00,Wunderground v.1.15,2013-03-29 15:30:00,
2013-03-29 10:35:00,42.5,37.1,30.21,SSE,167,8.0,8.0,81,0.00,,,0.00,Wunderground v.1.15,2013-03-29 15:35:00,
2013-03-29 10:41:00,43.3,37.2,30.21,South,169,6.0,9.0,79,0.00,,,0.00,Wunderground v.1.15,2013-03-29 15:41:00,
2013-03-29 10:46:00,43.8,37.4,30.21,South,169,6.0,10.0,78,0.00,,,0.00,Wunderground v.1.15,2013-03-29 15:46:00,
2013-03-29 10:52:00,44.5,38.1,30.20,South,173,10.0,10.0,78,0.00,,,0.00,Wunderground v.1.15,2013-03-29 15:52:00,
2013-03-29 10:57:00,45.0,38.6,30.20,South,171,7.0,12.0,78,0.00,,,0.00,Wunderground v.1.15,2013-03-29 15:57:00,
2013-03-29 11:02:00,45.3,38.5,30.20,SSE,165,8.0,10.0,77,0.00,,,0.00,Wunderground v.1.15,2013-03-29 16:02:00,
2013-03-29 11:07:00,45.6,38.8,30.20,South,184,7.0,12.0,77,0.00,,,0.00,Wunderground v.1.15,2013-03-29 16:07:00,
2013-03-29 11:12:00,46.5,39.7,30.20,South,176,12.0,12.0,77,0.00,,,0.00,Wunderground v.1.15,2013-03-29 16:12:00,
2013-03-29 11:17:00,47.3,39.8,30.20,South,184,10.0,13.0,75,0.00,,,0.00,Wunderground v.1.15,2013-03-29 16:17:00,
2013-03-29 11:23:00,47.7,39.8,30.20,South,173,8.0,13.0,74,0.00,,,0.00,Wunderground v.1.15,2013-03-29 16:23:00,
2013-03-29 11:27:00,48.0,39.4,30.20,South,186,10.0,15.0,72,0.00,,,0.00,Wunderground v.1.15,2013-03-29 16:27:00,
2013-03-29 11:33:00,47.9,39.7,30.20,South,186,6.0,14.0,73,0.00,,,0.00,Wunderground v.1.15,2013-03-29 16:33:00,
2013-03-29 11:38:00,48.1,39.9,30.20,South,178,10.0,14.0,73,0.00,,,0.00,Wunderground v.1.15,2013-03-29 16:38:00,
2013-03-29 11:43:00,48.8,40.2,30.20,South,173,8.0,13.0,72,0.00,,,0.00,Wunderground v.1.15,2013-03-29 16:43:00,
2013-03-29 11:48:00,48.7,40.1,30.20,South,180,10.0,16.0,72,0.00,,,0.00,Wunderground v.1.15,2013-03-29 16:48:00,
2013-03-29 11:53:00,49.2,40.9,30.20,South,185,9.0,12.0,73,0.00,,,0.00,Wunderground v.1.15,2013-03-29 16:53:00,
2013-03-29 11:58:00,49.6,40.9,30.20,South,188,15.0,15.0,72,0.00,,,0.00,Wunderground v.1.15,2013-03-29 16:58:00,
2013-03-29 12:03:00,49.7,40.7,30.20,South,179,9.0,19.0,71,0.00,,,0.00,Wunderground v.1.15,2013-03-29 17:03:00,
2013-03-29 12:08:00,50.2,41.2,30.19,SSW,192,9.0,19.0,71,0.00,,,0.00,Wunderground v.1.15,2013-03-29 17:08:00,
2013-03-29 12:13:00,50.5,40.7,30.19,South,180,10.0,16.0,69,0.00,,,0.00,Wunderground v.1.15,2013-03-29 17:13:00,
2013-03-29 12:18:00,50.8,41.0,30.19,SSW,195,11.0,18.0,69,0.00,,,0.00,Wunderground v.1.15,2013-03-29 17:18:00,
2013-03-29 12:23:00,50.7,40.9,30.19,South,172,17.0,17.0,69,0.00,,,0.00,Wunderground v.1.15,2013-03-29 17:23:00,
2013-03-29 12:28:00,50.8,40.6,30.18,South,190,13.0,20.0,68,0.00,,,0.00,Wunderground v.1.15,2013-03-29 17:28:00,
2013-03-29 12:33:00,51.2,41.7,30.18,South,178,9.0,16.0,70,0.00,,,0.00,Wunderground v.1.15,2013-03-29 17:33:00,
2013-03-29 12:38:00,50.9,40.7,30.18,South,179,18.0,18.0,68,0.00,,,0.00,Wunderground v.1.15,2013-03-29 17:38:00,
2013-03-29 12:43:00,51.1,40.5,30.18,South,184,9.0,18.0,67,0.00,,,0.00,Wunderground v.1.15,2013-03-29 17:43:00,
2013-03-29 12:48:00,51.1,40.5,30.18,SSW,193,13.0,20.0,67,0.00,,,0.00,Wunderground v.1.15,2013-03-29 17:48:00,
2013-03-29 12:53:00,51.5,41.7,30.18,SSW,194,16.0,19.0,69,0.00,,,0.00,Wunderground v.1.15,2013-03-29 17:53:00,
2013-03-29 12:58:00,51.4,41.2,30.18,South,176,12.0,20.0,68,0.00,,,0.00,Wunderground v.1.15,2013-03-29 17:58:00,
2013-03-29 13:03:00,51.8,41.6,30.17,SSE,167,10.0,17.0,68,0.00,,,0.00,Wunderground v.1.15,2013-03-29 18:03:00,
2013-03-29 13:09:00,51.5,40.9,30.17,South,186,11.0,21.0,67,0.00,,,0.00,Wunderground v.1.15,2013-03-29 18:09:00,
2013-03-29 13:14:00,51.6,41.4,30.17,South,176,9.0,19.0,68,0.00,,,0.00,Wunderground v.1.15,2013-03-29 18:14:00,
2013-03-29 13:19:00,51.9,41.3,30.17,South,180,17.0,19.0,67,0.00,,,0.00,Wunderground v.1.15,2013-03-29 18:19:00,
2013-03-29 13:24:00,52.1,41.9,30.16,South,183,17.0,20.0,68,0.00,,,0.00,Wunderground v.1.15,2013-03-29 18:24:00,
2013-03-29 13:29:00,51.9,41.7,30.16,SSW,195,18.0,21.0,68,0.00,,,0.00,Wunderground v.1.15,2013-03-29 18:29:00,
2013-03-29 13:34:00,51.8,41.6,30.16,South,176,10.0,18.0,68,0.00,,,0.00,Wunderground v.1.15,2013-03-29 18:34:00,
2013-03-29 13:39:00,52.1,41.5,30.16,South,186,18.0,19.0,67,0.00,,,0.00,Wunderground v.1.15,2013-03-29 18:39:00,
2013-03-29 13:44:00,52.3,42.4,30.16,South,178,12.0,18.0,69,0.00,,,0.00,Wunderground v.1.15,2013-03-29 18:44:00,
2013-03-29 13:49:00,52.0,41.8,30.16,SSE,157,12.0,18.0,68,0.00,,,0.00,Wunderground v.1.15,2013-03-29 18:49:00,
2013-03-29 13:54:00,51.8,41.6,30.16,South,179,15.0,18.0,68,0.00,,,0.00,Wunderground v.1.15,2013-03-29 18:54:00,
2013-03-29 13:59:00,52.1,41.5,30.15,South,180,7.0,18.0,67,0.00,,,0.00,Wunderground v.1.15,2013-03-29 18:59:00,
2013-03-29 14:04:00,52.5,42.6,30.15,South,172,12.0,14.0,69,0.00,,,0.00,Wunderground v.1.15,2013-03-29 19:04:00,
2013-03-29 14:09:00,53.0,42.7,30.15,South,179,17.0,18.0,68,0.00,,,0.00,Wunderground v.1.15,2013-03-29 19:09:00,
2013-03-29 14:14:00,52.7,42.0,30.14,SSE,168,15.0,18.0,67,0.00,,,0.00,Wunderground v.1.15,2013-03-29 19:14:00,
2013-03-29 14:19:00,52.9,41.8,30.14,SSE,165,17.0,18.0,66,0.00,,,0.00,Wunderground v.1.15,2013-03-29 19:19:00,
2013-03-29 14:24:00,53.0,41.9,30.14,SSE,164,13.0,19.0,66,0.00,,,0.00,Wunderground v.1.15,2013-03-29 19:24:00,
2013-03-29 14:29:00,53.1,43.2,30.14,SSE,168,10.0,19.0,69,0.00,,,0.00,Wunderground v.1.15,2013-03-29 19:29:00,
2013-03-29 14:34:00,53.9,43.2,30.14,South,174,10.0,14.0,67,0.00,,,0.00,Wunderground v.1.15,2013-03-29 19:34:00,
2013-03-29 14:39:00,54.2,43.9,30.13,SSE,156,13.0,17.0,68,0.00,,,0.00,Wunderground v.1.15,2013-03-29 19:39:00,
2013-03-29 14:44:00,53.7,43.0,30.13,South,183,15.0,18.0,67,0.00,,,0.00,Wunderground v.1.15,2013-03-29 19:44:00,
2013-03-29 14:49:00,54.1,43.4,30.13,South,179,15.0,18.0,67,0.00,,,0.00,Wunderground v.1.15,2013-03-29 19:49:00,
2013-03-29 14:54:00,54.1,43.4,30.13,South,177,8.0,20.0,67,0.00,,,0.00,Wunderground v.1.15,2013-03-29 19:54:00,
2013-03-29 14:59:00,54.4,43.3,30.13,South,172,8.0,20.0,66,0.00,,,0.00,Wunderground v.1.15,2013-03-29 19:59:00,
2013-03-29 15:04:00,54.7,43.6,30.13,South,172,17.0,19.0,66,0.00,,,0.00,Wunderground v.1.15,2013-03-29 20:04:00,
2013-03-29 15:09:00,54.3,43.6,30.12,South,180,11.0,19.0,67,0.00,,,0.00,Wunderground v.1.15,2013-03-29 20:09:00,
2013-03-29 15:14:00,54.6,43.5,30.12,SSE,153,16.0,18.0,66,0.00,,,0.00,Wunderground v.1.15,2013-03-29 20:14:00,
2013-03-29 15:19:00,54.8,43.7,30.12,South,183,9.0,18.0,66,0.00,,,0.00,Wunderground v.1.15,2013-03-29 20:19:00,
2013-03-29 15:24:00,55.0,43.8,30.11,South,173,13.0,16.0,66,0.00,,,0.00,Wunderground v.1.15,2013-03-29 20:24:00,
2013-03-29 15:29:00,55.4,43.4,30.11,South,179,9.0,16.0,64,0.00,,,0.00,Wunderground v.1.15,2013-03-29 20:29:00,
2013-03-29 15:34:00,55.3,43.7,30.11,SSE,164,13.0,19.0,65,0.00,,,0.00,Wunderground v.1.15,2013-03-29 20:34:00,
2013-03-29 15:39:00,55.1,43.5,30.10,SSE,163,12.0,19.0,65,0.00,,,0.00,Wunderground v.1.15,2013-03-29 20:39:00,
2013-03-29 15:44:00,55.5,43.9,30.10,SSE,159,11.0,18.0,65,0.00,,,0.00,Wunderground v.1.15,2013-03-29 20:44:00,
2013-03-29 15:49:00,55.9,44.7,30.10,South,186,17.0,18.0,66,0.00,,,0.00,Wunderground v.1.15,2013-03-29 20:49:00,
2013-03-29 15:54:00,55.7,43.3,30.10,South,172,11.0,19.0,63,0.00,,,0.00,Wunderground v.1.15,2013-03-29 20:54:00,
2013-03-29 15:59:00,55.4,43.0,30.10,South,169,9.0,19.0,63,0.00,,,0.00,Wunderground v.1.15,2013-03-29 20:59:00,
2013-03-29 16:04:00,55.6,43.2,30.10,South,172,9.0,17.0,63,0.00,,,0.00,Wunderground v.1.15,2013-03-29 21:04:00,
2013-03-29 16:09:00,56.1,42.8,30.09,SSE,167,17.0,17.0,61,0.00,,,0.00,Wunderground v.1.15,2013-03-29 21:09:00,
2013-03-29 16:14:00,55.8,43.4,30.09,South,171,13.0,18.0,63,0.00,,,0.00,Wunderground v.1.15,2013-03-29 21:14:00,
2013-03-29 16:19:00,55.9,43.1,30.09,South,172,11.0,19.0,62,0.00,,,0.00,Wunderground v.1.15,2013-03-29 21:19:00,
2013-03-29 16:24:00,56.1,43.3,30.09,SSE,165,9.0,17.0,62,0.00,,,0.00,Wunderground v.1.15,2013-03-29 21:24:00,
2013-03-29 16:29:00,56.0,42.3,30.09,South,180,10.0,17.0,60,0.00,,,0.00,Wunderground v.1.15,2013-03-29 21:29:00,
2013-03-29 16:34:00,56.2,42.5,30.08,SSE,167,10.0,17.0,60,0.00,,,0.00,Wunderground v.1.15,2013-03-29 21:34:00,
2013-03-29 16:39:00,56.5,42.8,30.08,South,184,9.0,17.0,60,0.00,,,0.00,Wunderground v.1.15,2013-03-29 21:39:00,
2013-03-29 16:44:00,56.5,42.8,30.08,SSW,194,15.0,18.0,60,0.00,,,0.00,Wunderground v.1.15,2013-03-29 21:44:00,
2013-03-29 16:49:00,56.5,43.2,30.08,South,183,9.0,18.0,61,0.00,,,0.00,Wunderground v.1.15,2013-03-29 21:49:00,
2013-03-29 16:54:00,56.7,43.4,30.08,South,186,16.0,21.0,61,0.00,,,0.00,Wunderground v.1.15,2013-03-29 21:54:00,
2013-03-29 16:59:00,56.4,42.7,30.08,South,176,14.0,21.0,60,0.00,,,0.00,Wunderground v.1.15,2013-03-29 21:59:00,
2013-03-29 17:04:00,56.2,42.9,30.08,South,182,11.0,19.0,61,0.00,,,0.00,Wunderground v.1.15,2013-03-29 22:04:00,
2013-03-29 17:09:00,56.5,43.2,30.08,South,180,14.0,19.0,61,0.00,,,0.00,Wunderground v.1.15,2013-03-29 22:09:00,
2013-03-29 17:14:00,56.5,42.8,30.08,South,188,9.0,18.0,60,0.00,,,0.00,Wunderground v.1.15,2013-03-29 22:14:00,
2013-03-29 17:19:00,56.7,43.0,30.07,South,183,11.0,18.0,60,0.00,,,0.00,Wunderground v.1.15,2013-03-29 22:19:00,
2013-03-29 17:24:00,56.5,42.3,30.07,South,172,11.0,17.0,59,0.00,,,0.00,Wunderground v.1.15,2013-03-29 22:24:00,
2013-03-29 17:29:00,56.3,42.1,30.07,South,190,17.0,17.0,59,0.00,,,0.00,Wunderground v.1.15,2013-03-29 22:29:00,
2013-03-29 17:34:00,56.2,42.5,30.07,South,171,6.0,17.0,60,0.00,,,0.00,Wunderground v.1.15,2013-03-29 22:34:00,
2013-03-29 17:40:00,56.2,42.5,30.07,SSW,194,12.0,17.0,60,0.00,,,0.00,Wunderground v.1.15,2013-03-29 22:40:00,
2013-03-29 17:45:00,55.9,42.2,30.07,South,171,8.0,13.0,60,0.00,,,0.00,Wunderground v.1.15,2013-03-29 22:45:00,
2013-03-29 17:50:00,55.7,42.0,30.07,South,180,12.0,12.0,60,0.00,,,0.00,Wunderground v.1.15,2013-03-29 22:50:00,
2013-03-29 17:55:00,55.5,41.8,30.07,South,175,11.0,13.0,60,0.00,,,0.00,Wunderground v.1.15,2013-03-29 22:55:00,
2013-03-29 18:00:00,55.4,41.7,30.07,South,175,8.0,10.0,60,0.00,,,0.00,Wunderground v.1.15,2013-03-29 23:00:00,
2013-03-29 18:05:00,55.3,42.1,30.07,South,176,9.0,12.0,61,0.00,,,0.00,Wunderground v.1.15,2013-03-29 23:05:00,
2013-03-29 18:10:00,55.1,42.3,30.07,SSE,167,10.0,10.0,62,0.00,,,0.00,Wunderground v.1.15,2013-03-29 23:10:00,
2013-03-29 18:15:00,55.0,42.2,30.06,South,180,9.0,11.0,62,0.00,,,0.00,Wunderground v.1.15,2013-03-29 23:15:00,
2013-03-29 18:20:00,54.9,42.5,30.06,South,171,11.0,11.0,63,0.00,,,0.00,Wunderground v.1.15,2013-03-29 23:20:00,
2013-03-29 18:25:00,54.7,42.8,30.06,SSE,168,9.0,14.0,64,0.00,,,0.00,Wunderground v.1.15,2013-03-29 23:25:00,
2013-03-29 18:30:00,54.6,42.7,30.06,South,174,6.0,8.0,64,0.00,,,0.00,Wunderground v.1.15,2013-03-29 23:30:00,
2013-03-29 18:35:00,54.5,42.2,30.06,SSE,168,8.0,11.0,63,0.00,,,0.00,Wunderground v.1.15,2013-03-29 23:35:00,
2013-03-29 18:40:00,54.0,42.1,30.06,SSE,168,7.0,7.0,64,0.00,,,0.00,Wunderground v.1.15,2013-03-29 23:40:00,
2013-03-29 18:45:00,53.7,42.2,30.06,SSE,161,6.0,11.0,65,0.00,,,0.00,Wunderground v.1.15,2013-03-29 23:45:00,
2013-03-29 18:50:00,53.5,42.4,30.05,SSE,162,7.0,7.0,66,0.00,,,0.00,Wunderground v.1.15,2013-03-29 23:50:00,
2013-03-29 18:55:00,53.0,41.9,30.05,SSE,157,8.0,11.0,66,0.00,,,0.00,Wunderground v.1.15,2013-03-29 23:55:00,
2013-03-29 19:00:00,52.3,41.7,30.05,SSE,157,10.0,10.0,67,0.00,,,0.00,Wunderground v.1.15,2013-03-30 00:00:00,
2013-03-29 19:05:00,51.9,41.7,30.05,SSE,157,7.0,11.0,68,0.00,,,0.00,Wunderground v.1.15,2013-03-30 00:05:00,
2013-03-29 19:10:00,51.5,41.3,30.05,SSE,156,6.0,8.0,68,0.00,,,0.00,Wunderground v.1.15,2013-03-30 00:10:00,
2013-03-29 19:15:00,50.9,41.5,30.05,SSE,157,9.0,10.0,70,0.00,,,0.00,Wunderground v.1.15,2013-03-30 00:15:00,
2013-03-29 19:20:00,50.3,40.9,30.04,SSE,156,7.0,7.0,70,0.00,,,0.00,Wunderground v.1.15,2013-03-30 00:20:00,
2013-03-29 19:25:00,50.0,41.0,30.04,SSE,155,5.0,9.0,71,0.00,,,0.00,Wunderground v.1.15,2013-03-30 00:25:00,
2013-03-29 19:30:00,49.6,40.6,30.04,SSE,155,5.0,6.0,71,0.00,,,0.00,Wunderground v.1.15,2013-03-30 00:30:00,
2013-03-29 19:36:00,49.0,40.4,30.04,SSE,156,5.0,10.0,72,0.00,,,0.00,Wunderground v.1.15,2013-03-30 00:36:00,
2013-03-29 19:41:00,48.8,40.2,30.04,SSE,159,5.0,7.0,72,0.00,,,0.00,Wunderground v.1.15,2013-03-30 00:41:00,
2013-03-29 19:46:00,48.6,40.0,30.03,SSE,155,8.0,9.0,72,0.00,,,0.00,Wunderground v.1.15,2013-03-30 00:46:00,
2013-03-29 19:51:00,48.3,39.7,30.03,SSE,155,6.0,7.0,72,0.00,,,0.00,Wunderground v.1.15,2013-03-30 00:51:00,
2013-03-29 19:56:00,48.0,39.8,30.03,SSE,153,4.0,9.0,73,0.00,,,0.00,Wunderground v.1.15,2013-03-30 00:56:00,
2013-03-29 20:02:00,47.5,39.3,30.03,SSE,153,8.0,8.0,73,0.00,,,0.00,Wunderground v.1.15,2013-03-30 01:02:00,
2013-03-29 20:07:00,47.3,39.1,30.03,SSE,152,5.0,9.0,73,0.00,,,0.00,Wunderground v.1.15,2013-03-30 01:07:00,
2013-03-29 20:12:00,47.3,39.1,30.03,SSE,150,7.0,10.0,73,0.00,,,0.00,Wunderground v.1.15,2013-03-30 01:12:00,
2013-03-29 20:17:00,47.1,39.2,30.03,SSE,150,8.0,10.0,74,0.00,,,0.00,Wunderground v.1.15,2013-03-30 01:17:00,
2013-03-29 20:22:00,47.1,38.9,30.03,SSE,151,6.0,12.0,73,0.00,,,0.00,Wunderground v.1.15,2013-03-30 01:22:00,
2013-03-29 20:27:00,47.1,38.9,30.03,SSE,152,9.0,12.0,73,0.00,,,0.00,Wunderground v.1.15,2013-03-30 01:27:00,
2013-03-29 20:33:00,46.9,38.7,30.03,SSE,153,7.0,10.0,73,0.00,,,0.00,Wunderground v.1.15,2013-03-30 01:33:00,
2013-03-29 20:38:00,47.5,38.9,30.02,SSE,150,6.0,13.0,72,0.00,,,0.00,Wunderground v.1.15,2013-03-30 01:38:00,
2013-03-29 20:43:00,47.2,38.6,30.03,SSE,149,8.0,9.0,72,0.00,,,0.00,Wunderground v.1.15,2013-03-30 01:43:00,
2013-03-29 20:48:00,47.2,38.6,30.03,SE,142,6.0,11.0,72,0.00,,,0.00,Wunderground v.1.15,2013-03-30 01:48:00,
2013-03-29 20:53:00,47.0,38.4,30.02,SSE,149,8.0,12.0,72,0.00,,,0.00,Wunderground v.1.15,2013-03-30 01:53:00,
2013-03-29 20:58:00,46.9,38.3,30.02,SE,144,7.0,12.0,72,0.00,,,0.00,Wunderground v.1.15,2013-03-30 01:58:00,
2013-03-29 21:03:00,46.6,38.4,30.02,SE,146,6.0,9.0,73,0.00,,,0.00,Wunderground v.1.15,2013-03-30 02:03:00,
2013-03-29 21:08:00,46.7,38.5,30.02,SSE,148,9.0,11.0,73,0.00,,,0.00,Wunderground v.1.15,2013-03-30 02:08:00,
2013-03-29 21:13:00,46.5,38.3,30.02,SSE,158,7.0,10.0,73,0.00,,,0.00,Wunderground v.1.15,2013-03-30 02:13:00,
2013-03-29 21:18:00,46.6,38.1,30.02,SSE,149,10.0,11.0,72,0.00,,,0.00,Wunderground v.1.15,2013-03-30 02:18:00,
2013-03-29 21:23:00,46.4,38.2,30.02,SE,146,7.0,10.0,73,0.00,,,0.00,Wunderground v.1.15,2013-03-30 02:23:00,
2013-03-29 21:28:00,46.1,37.9,30.02,SSE,148,8.0,11.0,73,0.00,,,0.00,Wunderground v.1.15,2013-03-30 02:28:00,
2013-03-29 21:33:00,46.0,37.8,30.02,SE,144,7.0,10.0,73,0.00,,,0.00,Wunderground v.1.15,2013-03-30 02:33:00,
2013-03-29 21:38:00,46.0,37.8,30.02,SE,145,9.0,13.0,73,0.00,,,0.00,Wunderground v.1.15,2013-03-30 02:38:00,
2013-03-29 21:43:00,46.0,37.8,30.01,SSE,154,9.0,10.0,73,0.00,,,0.00,Wunderground v.1.15,2013-03-30 02:43:00,
2013-03-29 21:48:00,45.9,37.7,30.01,SSE,148,7.0,14.0,73,0.00,,,0.00,Wunderground v.1.15,2013-03-30 02:48:00,
2013-03-29 21:53:00,46.0,37.5,30.01,SE,144,6.0,11.0,72,0.00,,,0.00,Wunderground v.1.15,2013-03-30 02:53:00,
2013-03-29 21:58:00,45.8,37.6,30.01,SSE,157,9.0,14.0,73,0.00,,,0.00,Wunderground v.1.15,2013-03-30 02:58:00,
2013-03-29 22:03:00,45.9,37.4,30.01,SSE,150,8.0,13.0,72,0.00,,,0.00,Wunderground v.1.15,2013-03-30 03:03:00,
2013-03-29 22:08:00,46.1,37.2,30.01,SSE,157,9.0,15.0,71,0.00,,,0.00,Wunderground v.1.15,2013-03-30 03:08:00,
2013-03-29 22:13:00,46.1,37.2,30.02,SSE,155,7.0,11.0,71,0.00,,,0.00,Wunderground v.1.15,2013-03-30 03:13:00,
2013-03-29 22:18:00,45.9,37.0,30.02,SSE,159,9.0,12.0,71,0.00,,,0.00,Wunderground v.1.15,2013-03-30 03:18:00,
2013-03-29 22:23:00,45.8,36.9,30.01,SSE,153,12.0,12.0,71,0.00,,,0.00,Wunderground v.1.15,2013-03-30 03:23:00,
2013-03-29 22:28:00,45.8,36.9,30.01,SSE,153,9.0,12.0,71,0.00,,,0.00,Wunderground v.1.15,2013-03-30 03:28:00,
2013-03-29 22:33:00,45.4,36.5,30.01,SSE,155,7.0,11.0,71,0.00,,,0.00,Wunderground v.1.15,2013-03-30 03:33:00,
2013-03-29 22:38:00,45.0,36.5,30.01,SSE,156,9.0,12.0,72,0.00,,,0.00,Wunderground v.1.15,2013-03-30 03:38:00,
2013-03-29 22:44:00,44.6,36.5,30.01,SSE,155,8.0,9.0,73,0.00,,,0.00,Wunderground v.1.15,2013-03-30 03:44:00,
2013-03-29 22:49:00,44.7,36.2,30.01,SSE,160,7.0,11.0,72,0.00,,,0.00,Wunderground v.1.15,2013-03-30 03:49:00,
2013-03-29 22:54:00,45.4,36.5,30.01,SSE,159,9.0,14.0,71,0.00,,,0.00,Wunderground v.1.15,2013-03-30 03:54:00,
2013-03-29 22:59:00,46.0,36.4,30.01,South,169,8.0,16.0,69,0.00,,,0.00,Wunderground v.1.15,2013-03-30 03:59:00,
2013-03-29 23:00:00,46.0,36.4,30.01,SSE,166,9.0,9.0,69,0.00,,,0.00,Wunderground v.1.15,2013-03-30 04:00:00,
2013-03-29 23:02:00,46.2,36.2,30.01,SSE,161,9.0,10.0,68,0.00,,,0.00,Wunderground v.1.15,2013-03-30 04:02:00,
2013-03-29 23:07:00,46.1,36.1,30.00,SSE,165,11.0,16.0,68,0.00,,,0.00,Wunderground v.1.15,2013-03-30 04:07:00,
2013-03-29 23:12:00,45.8,36.2,30.00,South,169,10.0,13.0,69,0.00,,,0.00,Wunderground v.1.15,2013-03-30 04:12:00,
2013-03-29 23:17:00,45.9,35.9,30.00,SSE,165,6.0,14.0,68,0.00,,,0.00,Wunderground v.1.15,2013-03-30 04:17:00,
2013-03-29 23:22:00,45.7,35.7,30.00,South,171,8.0,10.0,68,0.00,,,0.00,Wunderground v.1.15,2013-03-30 04:22:00,
2013-03-29 23:27:00,45.4,35.8,30.00,SSE,165,8.0,13.0,69,0.00,,,0.00,Wunderground v.1.15,2013-03-30 04:27:00,
2013-03-29 23:32:00,45.2,35.6,29.99,SSE,165,10.0,12.0,69,0.00,,,0.00,Wunderground v.1.15,2013-03-30 04:32:00,
2013-03-29 23:37:00,44.7,35.5,29.99,South,178,7.0,14.0,70,0.00,,,0.00,Wunderground v.1.15,2013-03-30 04:37:00,
2013-03-29 23:42:00,44.2,35.4,29.99,SSE,166,9.0,13.0,71,0.00,,,0.00,Wunderground v.1.15,2013-03-30 04:42:00,
2013-03-29 23:47:00,44.0,35.2,29.99,South,172,7.0,13.0,71,0.00,,,0.00,Wunderground v.1.15,2013-03-30 04:47:00,
2013-03-29 23:52:00,43.9,35.1,29.99,South,173,7.0,10.0,71,0.00,,,0.00,Wunderground v.1.15,2013-03-30 04:52:00,
2013-03-29 23:57:00,43.8,35.0,29.99,South,176,5.0,10.0,71,0.00,,,0.00,Wunderground v.1.15,2013-03-30 04:57:00,